Location: Springfield
(37.2150°N, 93.2980°W)
Time: 01:48:30
(UTC-05:00)

Daily predictions for brighter satellites

Satellite Brightness Start Highest point End
(mag) Time Altitude Azimuth Time Altitude Azimuth Time Altitude Azimuth
Cosmos 2263 Rocket 4.1 03:40:14 24° E 03:40:14 24° E 03:43:43 10° NE
CZ-4C R/B 4.4 04:03:04 16° NNW 04:03:04 16° NNW 04:05:06 10° N
CZ-2D R/B 4.3 04:05:25 10° N 04:06:24 15° N 04:06:24 15° N
Okean O Rocket 3.1 04:41:43 10° NNE 04:45:40 33° E 04:47:42 22° SE
Cosmos 1932 4.4 04:47:30 67° SW 04:48:29 85° WNW 04:55:06 10° NNE
ATLAS 3B R/B 3.4 04:51:33 21° S 04:56:29 54° ESE 05:03:28 10° NE
Cosmos 1975 3.5 04:53:32 10° N 04:57:34 54° E 05:00:55 14° SSE
Cosmos 2266 Rocket 3.9 04:51:16 10° N 04:57:42 85° W 05:04:06 10° S
ADEOS II 1.9 04:52:27 10° NNE 04:57:44 87° WNW 04:58:41 61° SSW
DELTA 2 R/B (1) 3.7 05:01:57 54° NW 05:03:07 70° N 05:08:42 10° E
Okean 1 4.0 05:04:23 44° N 05:04:23 44° N 05:07:12 10° N
PSLV R/B 4.1 05:01:39 10° NNE 05:04:48 58° NNE 05:04:48 58° NNE
Meteor 1-18 Rocket 4.2 05:05:26 47° SW 05:07:06 69° W 05:13:02 10° N
Tiangong 1 3.3 05:09:36 22° ENE 05:09:36 22° ENE 05:10:53 10° E
SL-8 R/B 4.3 05:09:12 42° NW 05:09:32 43° NNW 05:14:07 10° NE
ASTEX 1 3.5 05:05:16 10° N 05:09:52 55° WNW 05:09:52 55° WNW
Cosmos 1844 Rocket 4.3 05:09:20 10° SSE 05:14:21 34° ESE 05:19:24 10° NE
Cosmos 1607 4.3 05:15:19 41° W 05:16:36 46° NW 05:22:43 10° NNE
Cosmos 1943 3.2 05:11:25 10° NNW 05:16:58 56° WSW 05:22:28 10° S
Cosmos 1743 3.4 05:16:22 10° N 05:20:13 55° E 05:24:02 10° SSE
Cosmos 2263 Rocket 2.6 05:21:57 38° W 05:22:47 40° WNW 05:28:08 10° N
Atlas Centaur 2 2.7 05:22:30 34° SW 05:24:17 42° S 05:29:06 10° ESE
PSLV R/B 3.4 05:20:18 10° N 05:24:28 66° WNW 05:25:27 48° SW
CZ-4B R/B 2.8 05:22:22 10° N 05:26:22 58° WNW 05:26:42 55° W
PAYLOAD B 4.1 05:23:37 10° NNE 05:29:09 86° WNW 05:34:39 10° SSW
Cosmos 1975 Rocket 4.0 05:30:33 30° NW 05:30:33 30° NW 05:33:41 10° NNW
Cosmos 1544 Rocket 3.4 05:25:54 10° N 05:30:16 83° W 05:34:37 10° S
Meteor PRIRODA 3.8 05:33:20 10° NNE 05:37:01 73° ESE 05:40:42 10° S
Cosmos 1455 Rocket 2.9 05:33:40 10° N 05:37:59 76° W 05:42:17 10° S
Meteor 1-4 Rocket 2.5 05:37:20 10° N 05:40:48 76° E 05:44:15 10° SSE
Cosmos 1437 Rocket 4.4 05:37:42 10° NNW 05:39:09 19° NW 05:39:09 19° NW
NOSS 3-2 (A) 4.4 05:38:07 10° S 05:43:40 45° ESE 05:49:40 10° NE
CZ-4B R/B 4.1 05:40:39 10° NNE 05:44:35 72° ESE 05:48:41 10° S
Meteor 1-12 Rocket 4.5 05:39:03 10° NNW 05:44:53 53° W 05:50:40 10° SSW
Cosmos 468 Rocket 4.0 05:39:49 10° NNW 05:45:11 85° WSW 05:50:28 10° SSE
Gbstr 26 Del rocket 4.5 05:37:19 10° NW 05:45:15 81° SW 05:53:20 10° SE
Meteor 1-13 Rocket 4.3 05:39:53 10° SSW 05:45:50 80° W 05:51:48 10° N
Cosmos 1486 Rocket 4.4 05:42:03 10° S 05:47:15 66° ESE 05:52:26 10° NNE
ATLAS 5 CENTAUR R/B 4.4 05:43:57 10° NNW 05:49:06 29° NE 05:54:36 10° ESE
Okean-O 4.1 05:44:57 10° NNE 05:49:07 40° E 05:53:16 10° S
Cosmos 1536 Rocket 3.5 05:50:45 10° SSW 05:54:59 57° W 05:59:17 10° N
MTI 4.4 05:54:36 10° SSE 05:57:47 58° ENE 06:01:00 10° N
Cosmos 1844 4.2 05:53:00 10° S 05:58:29 62° ESE 06:04:03 10° NNE
Intercosmos 25 Rocket 4.1 05:56:00 14° SW 05:59:05 30° W 06:02:10 10° NNW
Cosmos 1417 Rocket 4.5 05:52:55 10° SSW 05:59:14 70° W 06:05:36 10° N
CZ-4B R/B 3.4 05:57:33 10° N 06:02:37 48° WNW 06:07:42 10° SW
Cosmos 1763 Rocket 3.7 05:58:49 10° NNW 06:04:09 80° ENE 06:09:28 10° SSE
GPS 2-05 Rocket1 4.3 06:03:42 16° SW 06:04:20 17° SSW 06:06:28 10° SSE
CZ-3 R/B 3.1 05:49:53 15° WSW 06:05:06 47° S 06:10:44 10° ESE
Meteor 2-4 Rocket 3.6 06:00:32 10° SSW 06:06:03 72° W 06:11:46 10° N
USA 238 DEB 3.8 06:01:35 10° SW 06:08:27 63° NW 06:15:24 10° NNE
USA 238 3.8 06:01:42 10° SW 06:08:33 63° NW 06:15:31 10° NNE
Cosmos 1745 Rocket 4.2 06:02:44 10° N 06:09:09 83° E 06:15:27 10° S
Cosmos 1271 Rocket 4.1 06:07:16 10° N 06:11:06 44° ENE 06:14:57 10° SSE
Cosmos 1553 Rocket 3.9 06:06:32 10° SSW 06:12:37 64° W 06:18:40 10° N
Okean 1-7 Rocket 4.0 06:13:18 10° S 06:17:45 69° E 06:22:17 10° NNE
Cosmos 371 Rocket 3.9 06:14:14 10° NW 06:18:34 33° W 06:22:52 10° SSW
NOAA 6 4.2 06:14:18 10° NNE 06:19:31 83° ESE 06:24:42 10° SSW
Okean O Rocket 3.0 06:18:42 10° NNW 06:21:47 19° WNW 06:24:51 10° WSW
CZ-2C R/B 4.1 06:20:07 10° S 06:24:34 45° W 06:29:08 10° NNW
Cosmos 1025 Rocket 2.9 06:21:10 10° S 06:25:25 84° W 06:29:43 10° N
USA 116 3.5 06:22:18 10° S 06:25:28 44° W 06:28:27 10° NNW
Meteor 2-9 Rocket 4.2 06:21:35 10° NNW 06:26:54 56° W 06:32:20 10° S
S3M 4.2 06:26:30 10° SSW 06:32:30 49° W 06:38:38 10° N
EO 1 Del DPAF 3.4 06:30:35 10° S 06:34:16 49° W 06:38:00 10° NNW
COSMOS 2406 3.2 06:30:03 10° NNW 06:35:50 79° WSW 06:41:34 10° SSE
Okean 2 3.3 06:31:59 10° SSW 06:36:02 68° W 06:40:07 10° N
ADEOS II 4.0 06:36:01 10° NW 06:36:36 10° WNW 06:37:12 10° WNW
Cosmos 389 Rocket 2.5 06:33:24 10° N 06:36:52 84° ENE 06:40:21 10° S
Cosmos 2278 Rocket 2.7 06:34:39 10° S 06:40:15 69° ESE 06:45:53 10° NNE
Delta 2 Rocket 4.3 06:37:03 10° WSW 06:42:40 73° S 06:48:27 10° E
